Total_Precipitation_Accumulation
0.69 0.41 0.29 0.34 0.47 0.37 0.41 0.14 0.23 0.67 0.27 0.24 0.40 0.57 0.75 0.43 0.56 0.48 1.04 0.59 0.57 0.53 0.50 0.62 0.80 0.74 0.71 0.98 1.14 1.24 0.83 0.86 1.21 0.94 1.00 0.81 0.84 0.86 0.92 0.51 0.88 0.85
0.49 0.56 0.53 0.38 0.30 0.42 0.43 0.18 0.33 0.26 0.66 0.36 0.82 0.22 0.15 0.18 0.45 0.37 0.38 0.62 0.72 0.56 0.90 1.07 0.86 0.82 0.87 0.52 0.70 0.71 0.71 0.53 0.76 0.93 1.14 0.65 0.53 0.83 1.04 0.97 0.87 1.04
0.58 0.61 0.47 0.27 0.17 0.09 0.25 0.43 0.49 0.50 0.32 0.29 0.63 0.72 0.58 0.66 0.70 0.58 0.41 0.66 0.68 0.86 0.70 0.74 0.69 0.61 0.69 0.52 0.71 0.69 0.58 0.50 0.67 0.57 0.81 0.80 0.89 0.87 0.49 0.73 0.73 0.56
0.68 0.48 0.44 0.29 0.29 0.22 0.31 0.67 0.57 0.90 0.49 0.57 0.25 0.25 0.39 0.46 0.29 0.28 0.26 0.33 0.54 0.39 0.55 0.56 0.44 0.36 0.40 0.52 0.65 0.85 0.54 0.42 0.46 0.75 0.63 0.85 0.86 0.75 0.99 0.84 0.86 0.76
0.66 0.45 0.86 0.80 0.58 0.55 0.77 0.73 0.43 0.61 0.38 0.25 0.52 0.52 0.37 0.41 0.23 0.28 0.51 0.28 0.22 0.54 0.35 0.50 0.51 0.56 0.39 0.45 0.53 0.50 0.49 0.55 0.52 1.07 0.89 0.68 0.42 0.49 0.74 0.81 0.85 0.77
0.65 0.51 0.31 0.50 0.67 0.48 0.48 0.46 0.18 0.33 0.39 0.53 0.39 0.53 0.41 0.33 0.35 0.26 0.69 0.33 0.45 0.26 0.33 0.55 0.46 0.78 0.57 0.42 0.56 0.49 0.50 0.78 0.74 0.82 0.66 0.50 0.51 0.50 1.00 0.82 0.72 0.86
0.56 0.37 0.19 0.32 0.70 0.78 0.32 0.13 0.39 0.30 0.50 0.32 0.39 0.30 0.24 0.26 0.24 0.24 0.46 0.25 0.20 0.35 0.35 0.31 0.26 0.66 0.45 0.86 0.43 0.54 0.74 0.71 1.10 0.69 0.52 0.76 0.98 1.64 0.71 0.72 0.68 0.53
1.14 1.48 0.86 0.31 0.34 1.04 0.77 0.68 0.44 0.38 0.44 0.34 0.33 0.55 0.29 0.38 0.17 0.29 0.23 0.11 0.11 0.18 0.23 0.24 0.30 0.30 0.63 0.53 0.95 0.64 0.58 0.89 0.39 0.43 0.55 0.86 0.97 0.40 0.32 0.30 0.55 0.54
1.12 1.13 1.01 0.82 0.72 0.80 0.86 1.10 1.07 0.57 0.84 0.55 0.52 0.66 0.69 0.22 0.13 0.08 0.07 0.06 0.13 0.41 0.24 0.25 0.30 0.35 0.40 0.56 0.41 0.51 0.57 1.00 0.51 0.45 0.66 0.65 0.52 0.55 0.67 0.96 0.46 0.33
1.00 0.56 0.38 0.35 0.26 0.15 0.29 0.65 0.51 0.50 0.30 0.16 0.15 0.59 0.79 0.29 0.12 0.07 0.09 0.07 0.06 0.11 0.18 0.46 0.53 0.56 0.62 0.47 0.34 0.34 0.43 0.57 0.70 0.60 0.54 0.56 0.47 0.44 0.55 0.53 0.48 0.45
0.96 0.81 0.38 0.49 0.81 0.63 0.44 0.50 0.63 0.31 0.19 0.25 0.19 0.25 0.25 0.32 0.10 0.15 0.44 0.26 0.61 0.38 0.37 0.33 0.41 0.55 0.41 0.43 0.51 0.41 0.37 0.52 0.63 0.52 0.44 0.34 0.48 0.73 0.55 0.60 0.79 0.92
1.31 1.26 1.14 0.76 0.56 0.88 1.00 0.73 0.77 0.49 0.38 0.18 0.17 0.23 0.14 0.14 0.45 0.28 0.13 0.14 0.19 0.29 0.30 0.60 0.64 0.71 0.72 0.35 0.42 0.40 0.68 0.42 0.39 0.46 0.43 0.48 0.55 0.69 0.94 0.77 0.64 0.48
1.09 0.77 1.09 0.95 1.04 1.10 0.84 0.65 0.66 0.63 0.46 0.25 0.33 0.33 0.49 0.37 0.47 0.68 0.54 0.25 0.35 0.51 0.60 0.48 0.53 0.45 0.47 0.32 0.52 0.49 0.56 0.51 0.61 0.60 0.36 0.37 0.31 0.42 0.58 0.64 0.75 1.01
2.03 1.74 1.89 1.22 1.05 1.13 1.14 0.84 0.64 0.56 1.16 1.15 0.88 0.52 0.62 0.70 0.80 0.40 0.70 0.55 0.49 0.54 0.46 0.67 0.48 0.38 0.51 0.63 0.72 0.47 0.47 0.43 0.39 0.48 0.34 0.43 0.68 0.49 0.62 0.81 0.89 0.79
2.77 2.58 2.15 1.28 1.07 0.96 1.00 1.07 0.64 0.63 0.92 1.56 1.08 0.98 0.92 1.04 1.15 0.75 0.39 0.64 0.56 0.77 0.58 0.50 0.73 0.96 0.47 0.53 0.78 0.44 0.43 0.36 0.42 0.30 0.36 0.36 0.43 0.47 0.41 0.57 0.58 0.82
1.97 2.02 1.60 1.13 0.76 0.53 0.30 0.36 0.40 0.48 0.39 0.45 0.33 0.52 0.44 0.65 0.73 0.76 0.56 0.53 0.50 0.52 0.56 1.07 0.78 1.17 0.70 0.96 0.82 0.61 0.63 0.53 0.50 0.44 0.35 0.28 0.36 0.44 0.50 0.75 0.81 0.64
1.18 0.99 1.19 1.15 0.65 0.37 0.37 0.31 0.26 0.45 0.88 0.51 0.76 0.39 0.36 0.63 0.36 0.15 0.23 0.37 0.25 0.30 0.35 0.49 0.52 0.40 0.98 0.50 0.22 0.14 0.38 0.75 0.52 0.53 0.52 0.25 0.30 0.40 0.43 0.47 0.91 0.87
2.07 1.77 1.64 1.47 0.94 0.66 1.25 0.42 0.33 0.95 0.71 0.43 0.36 0.27 0.37 0.25 0.25 0.28 0.19 0.25 0.28 0.30 0.32 0.25 0.43 0.32 0.36 0.36 0.39 0.21 0.24 0.34 0.52 0.44 0.47 0.38 0.46 0.63 0.71 0.50 0.76 0.69
1.95 1.63 2.00 1.40 1.48 0.81 1.07 2.72 1.62 0.84 0.84 0.51 0.29 0.13 0.17 0.11 0.16 0.20 0.25 0.33 0.41 0.38 0.48 0.37 0.54 0.27 0.21 0.40 0.41 0.67 0.43 0.33 0.56 0.76 0.54 0.59 0.61 0.83 0.48 0.40 0.48 0.59
1.94 2.56 2.03 1.77 1.44 1.11 1.34 1.12 0.64 0.63 1.23 0.79 0.61 0.73 0.33 0.24 0.24 0.19 0.14 0.17 0.41 0.44 0.41 0.51 0.97 0.63 0.53 0.51 0.45 0.57 0.47 0.53 0.52 0.64 0.62 0.58 0.64 0.51 0.64 0.66 0.61 0.58
1.76 1.84 2.41 2.03 1.92 1.93 2.27 2.46 1.35 1.46 1.10 0.80 1.23 0.70 0.88 0.92 0.62 0.41 0.39 0.35 0.28 0.30 0.49 0.90 1.17 0.25 0.32 0.35 0.40 0.24 0.25 0.27 0.46 0.57 0.51 0.65 0.73 0.53 0.70 0.46 0.66 0.74
2.05 1.88 2.11 2.53 2.03 2.04 2.23 2.00 1.91 2.04 1.58 1.47 1.27 1.21 0.94 1.07 0.83 0.81 0.54 0.59 0.71 0.78 0.62 0.42 0.56 0.22 0.25 0.17 0.32 0.47 0.23 0.37 0.37 0.45 0.58 0.49 0.47 0.51 0.50 0.53 0.64 0.67
1.71 1.79 2.69 2.30 2.58 1.67 1.85 2.04 2.41 1.84 1.61 1.28 1.30 1.40 1.16 1.23 1.18 1.12 1.09 0.66 1.49 0.90 0.51 0.56 0.42 0.42 0.70 0.61 0.52 0.37 0.25 0.17 0.26 0.39 0.37 0.73 0.51 0.53 0.48 0.37 0.65 0.67
1.54 1.92 1.30 1.86 2.00 2.22 1.63 1.52 2.03 1.97 2.03 1.55 1.53 1.31 1.23 1.00 1.09 1.18 1.01 0.83 0.76 0.84 0.74 0.91 1.01 0.67 0.24 0.32 0.09 0.06 0.35 0.41 0.53 0.57 0.51 0.32 0.38 0.47 0.46 0.57 0.59 0.46
1.94 2.35 1.89 1.56 2.13 1.98 1.59 1.38 1.21 1.35 1.66 1.89 1.65 1.67 1.77 2.50 2.10 1.11 0.94 1.10 1.40 1.69 1.16 0.69 0.99 0.84 0.37 0.21 0.14 0.19 0.37 0.29 0.29 0.26 0.34 0.45 0.32 0.30 0.35 0.52 0.63 0.61
1.73 2.45 2.68 2.87 3.41 3.90 3.03 2.97 2.53 2.02 1.49 1.87 2.29 2.10 2.69 2.72 1.30 1.50 1.28 0.97 0.78 0.77 0.49 0.52 0.41 0.47 0.40 0.26 0.22 0.22 0.25 0.37 0.50 0.23 0.28 0.54 0.59 0.66 0.45 0.36 0.46 0.80